Location: *
(43.0167°S, 179.9000°E)
Time: 20:39:09
(UTC+00:00)

Cosmos 1943 Rocket - Pass Details

Date: 12 August 2024
Orbit: 813 x 841 km, 71.0° (Epoch: 19 September)

Event Time Altitude Azimuth Distance (km) Brightness Sun altitude
Rises 17:15:41 0° 334° (NNW) 3,345 5.1 -19.0°
Reaches altitude 10° 17:18:05 10° 333° (NNW) 2,424 4.3 -18.5°
Maximum altitude 17:23:40 80° 245° (WSW) 854 2.1 -17.5°
Drops below altitude 10° 17:29:21 10° 157° (SSE) 2,473 4.8 -16.5°
Sets 17:31:50 0° 156° (SSE) 3,418 5.6 -16.0°
